weather.gov     
National Weather Service

Regional Weather Roundup
NWS Homepage
This page is being discontinued on March 12, 2014.
The same data is available at this site. Please update your bookmarks.
Thank you, and we apologize for the inconvenience.
Please send an email to SR-SRH.Webmaster@noaa.gov with any concerns.


Current Version
Previous Version:    01  02  03  04  05  06  07  08  09  10  11  12  13  14  15  16  17  18  19  20  21  22  23  24  25  26  27  28  29  30  
   31  32  33  34  35  36  37  38  39  40  41  42  43  44  45  46  47  48  49  50  51  52  53  
[Printable]
038
ASUS44 KMEG 240710
RWRTN
TENNESSEE HOURLY STATE WEATHER ROUNDUP
NATIONAL WEATHER SERVICE MEMPHIS TN
200 AM CDT THU APR 24 2014

TNZ002-004-019-021-049-052-054-088>092-240800-
WEST TENNESSEE

CITY           SKY/WX    TMP DP  RH WIND       PRES   REMARKS
MEMPHIS INTL   PTCLDY    60  40  47 CALM      29.92F
NWS MEMPHIS      N/A     51 N/A N/A MISG        N/A
JACKSON        CLEAR     53  37  54 E3        29.95F
DYERSBURG      CLEAR     55  34  44 E5        29.95F
UNION CITY     CLEAR     48  39  71 CALM      29.95F
PARIS          PTCLDY    48  35  60 E5        29.97S
LEXINGTON      CLEAR     45  37  76 CALM      29.96S
SAVANNAH       CLEAR     43  43 100 CALM      29.96F
$$

TNZ008-025-027-028-033-062-065-066-240800-
NORTH MIDDLE TENNESSEE

CITY           SKY/WX    TMP DP  RH WIND       PRES   REMARKS
NASHVILLE      CLEAR     51  36  56 CALM      29.98F
DICKSON        CLEAR     50  32  50 E3        29.98S
PORTLAND       PTCLDY    48  34  57 E5        29.99F
CLARKSVILLE    PTCLDY    50  35  56 E7        29.98F
SMYRNA         CLEAR     43  37  79 CALM      29.99F
MURFREESBORO   CLEAR     48  36  63 CALM      29.98S
COOKEVILLE     CLEAR     39  36  87 CALM      29.98F
LIVINGSTON     CLEAR     49  32  52 E8        30.00F
GALLATIN       CLEAR     50  36  58 CALM      30.00F
CROSSVILLE     CLEAR     46  32  58 NE5       30.00F
$$

TNZ061-075-076-078-094-096-097-240800-
SOUTH MIDDLE TENNESSEE

CITY           SKY/WX    TMP DP  RH WIND       PRES   REMARKS
LEWISBURG      CLEAR     39  37  92 CALM      29.97F
FAYETTEVILLE   CLEAR     47  35  63 CALM      29.97S
TULLAHOMA      CLEAR     45  36  70 CALM      29.98S
WINCHESTER     CLEAR     39  39 100 CALM      29.98S
MCMINNVILLE    CLEAR     43  37  81 CALM      29.98S
COLUMBIA       CLEAR     43  43 100 CALM      29.96F
SHELBYVILLE    CLEAR     45  39  81 CALM      29.98F
$$

TNZ017-018-042-046-047-240800-
NORTHEAST TENNESSEE

CITY           SKY/WX    TMP DP  RH WIND       PRES   REMARKS
TRI CITIES     CLEAR     39  29  67 CALM      30.03F
ELIZABETHTON   SUNNY     36  30  80 CALM      30.03F
$$

TNZ012-013-036-069-073-074-240800-
CENTRAL EAST TENNESSEE

CITY           SKY/WX    TMP DP  RH WIND       PRES   REMARKS
KNOXVILLE      CLEAR     47  34  60 N6        29.98F
OAK RIDGE      CLEAR     48  35  60 NE3       30.01F
$$

TNZ083-085-099-240800-
SOUTHEAST TENNESSEE

CITY           SKY/WX    TMP DP  RH WIND       PRES   REMARKS
CHATTANOOGA    CLEAR     49  42  77 CALM      29.98S
$$

SKY/WX REPORTED AS FAIR MEANS FEW OR NO CLOUDS BELOW
12 THOUSAND FEET.





U.S. Dept. of Commerce
NOAA National Weather Service
1325 East West Highway
Silver Spring, MD 20910
E-mail: w-nws.webmaster@noaa.gov
Page last modified: May 16, 2007
NATIONAL WEATHER SERVICE: for Safety, for Work, for Fun - FOR LIFE